When you browse on this site, cookies collect data to enhance your experience and personalize the content and advertising you see.
Visit our Privacy Policy to learn more. By continuing to use the site, you agree to this use of cookies and data.
  • In Österreich
  • Länderverzeichnis
  • Für 7 Tage
  • Wassertemperatur
  • Satellitenkarten
  • Wetterkarte
  • News
  • Widgets
  • user-avatar
    Anmelden

    Stündliche Wetter Kalgoorlie

    Heute, 17 Juli, Mittwoch

    Zeit Temperatur Niederschläge Wind Luftdruck Luftfeuchtigkeit
    00:00 +11°C° 0 mm 3 m/S 737 mmHg 49%
    01:00 +11°C° 0 mm 3 m/S 737 mmHg 50%
    02:00 +10°C° 0 mm 3 m/S 736 mmHg 51%
    03:00 +10°C° 0 mm 3 m/S 736 mmHg 52%
    04:00 +9°C° 0 mm 3 m/S 736 mmHg 53%
    05:00 +9°C° 0 mm 3 m/S 736 mmHg 54%
    06:00 +9°C° 0 mm 3 m/S 736 mmHg 53%
    07:00 +9°C° 0 mm 3 m/S 736 mmHg 53%
    08:00 +10°C° 0 mm 3 m/S 736 mmHg 50%
    09:00 +12°C° 0 mm 4 m/S 736 mmHg 44%
    10:00 +14°C° 0 mm 4 m/S 736 mmHg 38%
    11:00 +16°C° 0 mm 5 m/S 736 mmHg 33%
    12:00 +17°C° 0 mm 5 m/S 736 mmHg 30%
    13:00 +19°C° 0 mm 5 m/S 735 mmHg 27%
    14:00 +20°C° 0 mm 5 m/S 734 mmHg 24%
    15:00 +19°C° 0 mm 4 m/S 734 mmHg 27%
    16:00 +18°C° 0 mm 4 m/S 733 mmHg 29%
    17:00 +17°C° 0 mm 3 m/S 733 mmHg 31%
    18:00 +16°C° 0 mm 3 m/S 733 mmHg 32%
    19:00 +14°C° 0 mm 3 m/S 733 mmHg 33%
    20:00 +14°C° 0 mm 3 m/S 734 mmHg 34%
    21:00 +13°C° 0 mm 3 m/S 734 mmHg 35%
    22:00 +13°C° 0 mm 3 m/S 734 mmHg 36%
    23:00 +12°C° 0 mm 3 m/S 734 mmHg 38%

    Morgen, 18 Juli, Donnerstag

    Zeit Temperatur Niederschläge Wind Luftdruck Luftfeuchtigkeit
    00:00 +12°C° 0 mm 3 m/S 733 mmHg 39%
    01:00 +12°C° 0 mm 2 m/S 733 mmHg 41%
    02:00 +12°C° 0 mm 2 m/S 732 mmHg 42%
    03:00 +10°C° 0 mm 2 m/S 732 mmHg 44%
    04:00 +10°C° 0 mm 2 m/S 732 mmHg 45%
    05:00 +9°C° 0 mm 2 m/S 732 mmHg 47%
    06:00 +10°C° 0 mm 2 m/S 733 mmHg 48%
    07:00 +12°C° 0 mm 2 m/S 733 mmHg 48%
    08:00 +12°C° 0 mm 2 m/S 733 mmHg 49%
    09:00 +14°C° 0 mm 1 m/S 733 mmHg 44%
    10:00 +16°C° 0 mm 1 m/S 733 mmHg 39%
    11:00 +18°C° 0 mm 1 m/S 733 mmHg 34%
    12:00 +18°C° 0 mm 2 m/S 732 mmHg 31%
    13:00 +19°C° 0 mm 2 m/S 732 mmHg 29%
    14:00 +20°C° 0 mm 2 m/S 731 mmHg 27%
    15:00 +19°C° 0 mm 2 m/S 731 mmHg 29%
    16:00 +18°C° 0 mm 2 m/S 731 mmHg 32%
    17:00 +18°C° 0 mm 1 m/S 730 mmHg 34%
    18:00 +16°C° 0 mm 1 m/S 730 mmHg 35%
    19:00 +15°C° 0 mm 1 m/S 731 mmHg 35%
    20:00 +14°C° 0 mm 1 m/S 731 mmHg 36%
    21:00 +14°C° 0 mm 2 m/S 730 mmHg 35%
    22:00 +14°C° 0 mm 2 m/S 730 mmHg 35%
    23:00 +13°C° 0 mm 3 m/S 730 mmHg 34%

    übermorgen, 19 Juli, Freitag

    Zeit Temperatur Niederschläge Wind Luftdruck Luftfeuchtigkeit
    00:00 +12°C° 0 mm 3 m/S 730 mmHg 34%
    01:00 +12°C° 0 mm 3 m/S 729 mmHg 35%
    02:00 +12°C° 0 mm 3 m/S 729 mmHg 35%
    03:00 +11°C° 0 mm 4 m/S 729 mmHg 36%
    04:00 +11°C° 0 mm 4 m/S 728 mmHg 36%
    05:00 +11°C° 0 mm 4 m/S 728 mmHg 36%
    06:00 +10°C° 0 mm 5 m/S 728 mmHg 36%
    07:00 +10°C° 0 mm 5 m/S 728 mmHg 36%
    08:00 +10°C° 0 mm 5 m/S 728 mmHg 36%
    09:00 +14°C° 0 mm 7 m/S 728 mmHg 31%
    10:00 +17°C° 0 mm 8 m/S 727 mmHg 26%
    11:00 +19°C° 0 mm 9 m/S 727 mmHg 21%
    12:00 +21°C° 0 mm 10 m/S 726 mmHg 20%
    13:00 +22°C° 0 mm 10 m/S 726 mmHg 19%
    14:00 +22°C° 0 mm 11 m/S 725 mmHg 18%
    15:00 +21°C° 0 mm 10 m/S 724 mmHg 20%
    16:00 +20°C° 0 mm 8 m/S 724 mmHg 22%
    17:00 +18°C° 0 mm 7 m/S 724 mmHg 25%
    18:00 +17°C° 0 mm 7 m/S 724 mmHg 27%
    19:00 +16°C° 0 mm 7 m/S 724 mmHg 29%
    20:00 +15°C° 0 mm 7 m/S 724 mmHg 31%
    21:00 +13°C° 0 mm 8 m/S 724 mmHg 42%
    22:00 +13°C° 0 mm 9 m/S 724 mmHg 53%
    23:00 +12°C° 0 mm 10 m/S 724 mmHg 64%

    20 Juli, Samstag

    Zeit Temperatur Niederschläge Wind Luftdruck Luftfeuchtigkeit
    00:00 +11°C° 0.6 mm 11 m/S 725 mmHg 67%
    01:00 +11°C° 0.6 mm 11 m/S 725 mmHg 71%
    02:00 +9°C° 0.6 mm 11 m/S 725 mmHg 74%
    03:00 +8°C° 0 mm 10 m/S 726 mmHg 74%
    04:00 +7°C° 0 mm 8 m/S 726 mmHg 75%
    05:00 +8°C° 0 mm 7 m/S 727 mmHg 75%
    06:00 +8°C° 0 mm 7 m/S 728 mmHg 74%
    07:00 +6°C° 0 mm 8 m/S 728 mmHg 73%
    08:00 +6°C° 0 mm 8 m/S 729 mmHg 73%
    09:00 +7°C° 0 mm 8 m/S 729 mmHg 65%
    10:00 +10°C° 0 mm 8 m/S 730 mmHg 58%
    11:00 +11°C° 0 mm 9 m/S 730 mmHg 51%
    12:00 +11°C° 0 mm 8 m/S 730 mmHg 46%
    13:00 +12°C° 0 mm 8 m/S 730 mmHg 42%
    14:00 +14°C° 0 mm 7 m/S 730 mmHg 37%
    15:00 +12°C° 0 mm 7 m/S 730 mmHg 39%
    16:00 +11°C° 0 mm 6 m/S 731 mmHg 40%
    17:00 +12°C° 0 mm 5 m/S 731 mmHg 42%
    18:00 +11°C° 0 mm 4 m/S 731 mmHg 45%
    19:00 +10°C° 0 mm 4 m/S 732 mmHg 49%
    20:00 +9°C° 0 mm 3 m/S 732 mmHg 52%
    21:00 +8°C° 0 mm 3 m/S 732 mmHg 56%
    22:00 +8°C° 0 mm 3 m/S 733 mmHg 60%
    23:00 +7°C° 0 mm 3 m/S 733 mmHg 64%

    21 Juli, Sonntag

    Zeit Temperatur Niederschläge Wind Luftdruck Luftfeuchtigkeit
    00:00 +7°C° 0 mm 3 m/S 732 mmHg 66%
    01:00 +7°C° 0 mm 3 m/S 732 mmHg 69%
    02:00 +5°C° 0 mm 3 m/S 732 mmHg 71%
    03:00 +5°C° 0 mm 3 m/S 732 mmHg 72%
    04:00 +5°C° 0 mm 3 m/S 732 mmHg 73%
    05:00 +5°C° 0 mm 4 m/S 732 mmHg 74%
    06:00 +5°C° 0 mm 4 m/S 732 mmHg 74%
    07:00 +6°C° 0 mm 5 m/S 732 mmHg 75%
    08:00 +6°C° 0 mm 5 m/S 732 mmHg 75%
    09:00 +8°C° 0 mm 6 m/S 732 mmHg 69%
    10:00 +10°C° 0 mm 7 m/S 732 mmHg 62%
    11:00 +11°C° 0 mm 8 m/S 731 mmHg 56%
    12:00 +12°C° 0 mm 8 m/S 731 mmHg 53%
    13:00 +13°C° 0 mm 8 m/S 730 mmHg 51%
    14:00 +15°C° 0 mm 9 m/S 729 mmHg 48%
    15:00 +15°C° 0 mm 8 m/S 729 mmHg 51%
    16:00 +13°C° 0 mm 8 m/S 729 mmHg 53%
    17:00 +14°C° 0 mm 7 m/S 729 mmHg 56%
    18:00 +14°C° 0 mm 7 m/S 729 mmHg 57%
    19:00 +14°C° 0 mm 7 m/S 730 mmHg 59%
    20:00 +12°C° 0 mm 7 m/S 730 mmHg 61%
    21:00 +13°C° 0 mm 6 m/S 730 mmHg 67%
    22:00 +11°C° 0 mm 6 m/S 730 mmHg 73%
    23:00 +10°C° 0 mm 6 m/S 730 mmHg 79%

    22 Juli, Montag

    Zeit Temperatur Niederschläge Wind Luftdruck Luftfeuchtigkeit
    00:00 +10°C° 0 mm 6 m/S 730 mmHg 83%
    01:00 +9°C° 0 mm 6 m/S 729 mmHg 87%
    02:00 +9°C° 0 mm 5 m/S 729 mmHg 91%
    03:00 +9°C° 0 mm 6 m/S 730 mmHg 87%
    04:00 +9°C° 0 mm 6 m/S 730 mmHg 83%
    05:00 +9°C° 0 mm 6 m/S 730 mmHg 78%
    06:00 +9°C° 0 mm 6 m/S 731 mmHg 79%
    07:00 +9°C° 0 mm 5 m/S 732 mmHg 80%
    08:00 +8°C° 0 mm 5 m/S 732 mmHg 81%
    09:00 +9°C° 0 mm 5 m/S 732 mmHg 72%
    10:00 +11°C° 0 mm 6 m/S 732 mmHg 62%
    11:00 +13°C° 0 mm 6 m/S 732 mmHg 52%
    12:00 +13°C° 0 mm 6 m/S 732 mmHg 48%
    13:00 +14°C° 0 mm 6 m/S 732 mmHg 43%
    14:00 +15°C° 0 mm 6 m/S 732 mmHg 38%
    15:00 +14°C° 0 mm 5 m/S 732 mmHg 40%
    16:00 +14°C° 0 mm 4 m/S 732 mmHg 42%
    17:00 +13°C° 0 mm 4 m/S 733 mmHg 44%
    18:00 +12°C° 0 mm 4 m/S 733 mmHg 46%
    19:00 +11°C° 0 mm 3 m/S 734 mmHg 49%
    20:00 +10°C° 0 mm 3 m/S 735 mmHg 51%
    21:00 +10°C° 0 mm 3 m/S 735 mmHg 56%
    22:00 +9°C° 0 mm 3 m/S 735 mmHg 61%
    23:00 +8°C° 0 mm 3 m/S 736 mmHg 66%
    Mehr zeigen